Regional Weather Roundup
Issued by NWS

Home | Current Version | Previous Version | Graphics & Text | Print | Product List | Glossary On
Versions: 1 2 3 4 5 6 7 8 9 10 11 12 13 14 15 16 17 18 19 20 21 22 23 24 25 26
000
ASUS45 KCYS 171610
RWRWY

WYOMING REGIONAL WEATHER ROUNDUP
NATIONAL WEATHER SERVICE CHEYENNE WY
900 AM MST SAT FEB 17 2018

NOTE:  "FAIR" INDICATES FEW OR NO CLOUDS BELOW 12,000 FEET
WITH NO SIGNIFICANT WEATHER AND/OR OBSTRUCTIONS TO VISIBILITY.

WYZ001-171700-
YELLOWSTONE NATIONAL PARK

CITY           SKY/WX    TMP DP  RH WIND       PRES   REMARKS
LK YELLOWSTONE   N/A     17  13  84 CALM      29.95F
W YELLOWSTONE  NOT AVBL

$$
WYZ002>013-054>058-071-098>099-171700-
NORTHERN WYOMING

CITY           SKY/WX    TMP DP  RH WIND       PRES   REMARKS
JACKSON        CLOUDY    26  18  71 S20       30.01F WCI  12
CODY           FAIR      23  16  74 S5        29.91F WCI  17
GREYBULL       FAIR      20  15  81 E5        29.99F WCI  13
WORLAND        FAIR      13   7  77 NW3       29.98F
SHERIDAN       CLOUDY    23  21  92 SW5       29.96R WCI  17
BUFFALO        PTSUNNY   23  20  88 S15       29.93S WCI  10
GILLETTE       NOT AVBL
HULETT         CLOUDY    27  19  74 W6        29.96S WCI  20
NEWCASTLE      PTSUNNY   21  14  73 NW3       30.00R

$$
WYZ014>020-022>026-101>103-171700-
CENTRAL WYOMING

CITY           SKY/WX    TMP DP  RH WIND       PRES   REMARKS
BIG PINEY      FAIR      19  14  81 E3        30.07R
PINEDALE       PTSUNNY   14  10  85 CALM      30.08R
DUBOIS           N/A    N/A N/A N/A MISG        N/A
LANDER         FAIR      31  10  41 E5        29.94S WCI  26
RIVERTON       FAIR      25   7  46 CALM      29.96S
CASPER         FAIR      29  14  53 SW7       29.99S WCI  22
DOUGLAS        FAIR      31  15  52 W13       30.01R WCI  21

$$
WYZ021-027>030-104>119-171700-
SOUTHERN WYOMING

CITY           SKY/WX    TMP DP  RH WIND       PRES   REMARKS
EVANSTON       FAIR      29  16  58 SW25      30.13R WCI  14
FORT BRIDGER   FAIR      30  17  59 W20G26    30.15R WCI  17
ROCK SPRINGS   FAIR      28  13  53 W24G33    30.10R WCI  14
DIXON          CLOUDY    25  13  61 SW7       30.20R WCI  17
RAWLINS        FAIR      29  14  53 SW32G45   30.03S WCI  13
SARATOGA       FAIR      28  14  54 SW22G30   30.11R WCI  15
LARAMIE        FAIR      26  12  55 W23       30.03R WCI  11
CHEYENNE       FAIR      33   9  36 W33G41    30.02R WCI  18
TORRINGTON     FAIR      35  14  42 NW16G24   30.04R WCI  25
PINE BLUFFS    FAIR      36   9  32 MISG      30.04R

$$




USA.gov is the U.S. government's official web portal to all federal, state and local government web resources and services.